Location: Kawakawa
(35.3830°S, 174.0670°E)
Time: 17:18:50
(UTC+13:00)

A-11 Canister half - Pass Details

Date: 06 December 2019
Orbit: 1525 x 1684 km, 47.3° (Epoch: 18 January)

Event Time Altitude Azimuth Distance (km) Brightness Sun altitude
Rises 22:30:17 0° 267° (W) 4,684 12.2 -20.3°
Reaches altitude 10° 22:33:35 10° 260° (W) 3,705 11.7 -20.7°
Maximum altitude 22:42:20 43° 190° (S) 2,077 10.1 -21.8°
Drops below altitude 10° 22:51:16 10° 120° (ESE) 3,774 11.0 -22.9°
Sets 22:54:39 0° 113° (ESE) 4,779 11.5 -23.3°
